Location: Ariel
(45.9570°N, 122.5700°W)
Time: 07:15:12
(UTC-08:00)

Transit 4A - Pass Details

Date: 01 November 2020
Orbit: 862 x 982 km, 66.8° (Epoch: 03 December)

Event Time Altitude Azimuth Distance (km) Brightness Sun altitude
Rises 18:22:22 0° 304° (NW) 3,675 11.8 -15.5°
Reaches altitude 10° 18:27:29 10° 339° (NNW) 2,742 10.6 -16.4°
Maximum altitude 18:29:11 11° 355° (N) 2,668 10.3 -16.7°
Drops below altitude 10° 18:30:55 10° 11° (N) 2,745 10.2 -17.0°
Enters shadow 18:33:29 - 31° (NNE) 3,112 10.3 -17.5°
